Weather observations for the past three days for
Baltimore, Baltimore-Washington International Airport
Imperial (Metric)
Date Time (edt) Wind (mph) Vis. (mi.) Weather Sky Cond. Temperature (ºF) Relative Humidity Wind Chill (°F) Heat Index (°F) Pressure Precipitation (in)
Air Dwpt 6 hour altimeter (in) sea level (mb) 1 hr 3 hr 6 hr
Max. Min.
20 07:54 SW 6 10.00 Mostly Cloudy BKN250 75 66.9 75 66.9 76% 76 30.35 1027.5
20 06:54 Calm 10.00 Mostly Cloudy BKN250 70 66 87% 30.34 1027.1
20 05:54 Calm 10.00 Mostly Cloudy FEW190 BKN250 69.1 64.9 87% 30.33 1026.8
20 04:54 Calm 10.00 Mostly Cloudy BKN250 69.1 64.9 87% 30.33 1026.8
20 03:54 Calm 10.00 Mostly Cloudy FEW180 BKN250 69.1 64.9 87% 30.32 1026.6
20 02:54 Calm 10.00 Partly Cloudy FEW180 SCT250 71.1 64.9 81% 30.32 1026.4
20 01:54 SW 3 10.00 Mostly Cloudy BKN250 72 66 82 71.1 82% 30.31 1026.4
20 00:54 Calm 10.00 Mostly Cloudy BKN250 71.1 64 79% 30.32 1026.6
19 23:54 S 3 10.00 Mostly Cloudy BKN250 75 66 74% 76 30.34 1027.1
19 22:54 Calm 10.00 Mostly Cloudy BKN250 75 64.9 71% 77 30.33 1027.0
19 21:54 S 6 10.00 Mostly Cloudy BKN250 75.9 61 60% 78 30.32 1026.6
19 20:54 SE 7 10.00 Mostly Cloudy FEW200 BKN250 79 57 47% 80 30.3 1026.0
19 19:54 SE 6 10.00 Mostly Cloudy FEW036 SCT200 BKN250 82 52 90 82 35% 81 30.3 1025.8
19 18:54 S 7 10.00 Mostly Cloudy FEW036 BKN200 BKN250 84.9 55 36% 84 30.3 1025.9
19 17:54 SE 9 10.00 Mostly Cloudy FEW036 BKN200 BKN250 87.1 59 39% 86 30.3 1025.9
19 16:54 SE 9 10.00 Partly Cloudy FEW036 FEW200 SCT250 88 57 35% 87 30.31 1026.3
19 15:54 Vrbl 6 10.00 Partly Cloudy FEW036 SCT200 SCT250 89.1 61 39% 89 30.31 1026.3
19 14:54 SE 10 10.00 Mostly Cloudy FEW036 SCT200 BKN250 89.1 62.1 41% 89 30.32 1026.5
19 13:54 Vrbl 7 10.00 Mostly Cloudy FEW035 SCT200 BKN250 87.1 62.1 90 75 43% 88 30.32 1026.6
19 12:54 S 6 10.00 Mostly Cloudy FEW033 SCT200 BKN250 89.1 62.1 41% 89 30.34 1027.3
19 11:54 Vrbl 7 10.00 Mostly Cloudy FEW033 BKN250 86 64 48% 87 30.36 1027.8
19 10:54 N 3 10.00 Mostly Cloudy FEW032 BKN250 84 66 55% 86 30.36 1027.9
19 09:54 S 3 10.00 Mostly Cloudy FEW030 BKN250 80.1 66.9 64% 82 30.36 1027.8
19 08:54 Vrbl 6 10.00 Mostly Cloudy FEW030 BKN250 78.1 66 67% 80 30.36 1027.8
19 07:54 Vrbl 5 10.00 Mostly Cloudy BKN250 75 68 75 69.1 79% 76 30.35 1027.5
19 06:54 Calm 10.00 Mostly Cloudy BKN250 71.1 66.9 87% 30.33 1027.0
19 05:54 Calm 10.00 Partly Cloudy SCT250 70 66 87% 30.32 1026.4
19 04:54 Calm 10.00 Partly Cloudy SCT250 70 66 87% 30.31 1026.3
19 03:54 Calm 10.00 Mostly Cloudy BKN250 71.1 66 84% 30.3 1025.9
19 02:54 SE 5 10.00 Partly Cloudy SCT250 72 66 82% 30.29 1025.5
19 01:54 Calm 10.00 Mostly Cloudy BKN250 73 64.9 84 73 76% 30.29 1025.5
19 00:54 SE 6 10.00 Mostly Cloudy BKN250 73.9 64.9 74% 30.28 1025.1
18 23:54 S 3 10.00 Mostly Cloudy BKN250 75 64 69% 77 30.27 1025.0
18 22:54 S 5 10.00 Mostly Cloudy BKN250 75.9 63 64% 78 30.26 1024.7
18 21:54 S 6 10.00 Partly Cloudy SCT250 78.1 63 60% 80 30.26 1024.4
18 20:54 S 9 10.00 Partly Cloudy SCT250 80.1 66 62% 82 30.23 1023.7
18 19:54 Vrbl 7 10.00 A Few Clouds FEW250 84 66 91.9 84 55% 86 30.22 1023.1
18 18:54 S 7 10.00 A Few Clouds FEW250 86 66 51% 88 30.21 1022.8
18 17:54 S 13 G 20 10.00 A Few Clouds FEW050 FEW250 87.1 66 50% 89 30.2 1022.5
18 16:54 SE 9 G 18 10.00 A Few Clouds FEW050 FEW250 90 66.9 47% 93 30.21 1022.8
18 15:54 SE 12 10.00 A Few Clouds FEW050 FEW250 90 66.9 47% 93 30.22 1023.2
18 14:54 SE 12 G 20 10.00 Partly Cloudy FEW042 SCT250 90 68 48% 94 30.23 1023.4
18 13:54 SE 9 G 17 10.00 Partly Cloudy FEW040 SCT250 90 69.1 91 75 50% 95 30.23 1023.5
18 12:54 S 9 10.00 Partly Cloudy FEW045 SCT250 90 69.1 50% 95 30.24 1023.7
18 11:54 SW 6 10.00 Mostly Cloudy BKN250 88 66.9 50% 91 30.24 1023.8
18 10:54 Calm 10.00 Partly Cloudy SCT250 84 66.9 57% 87 30.24 1023.9
18 09:54 SW 6 10.00 Partly Cloudy FEW060 SCT250 82 66 58% 84 30.24 1024.0
18 08:54 SW 6 10.00 A Few Clouds FEW055 FEW250 79 64.9 62% 81 30.24 1024.0
18 07:54 S 7 10.00 A Few Clouds FEW055 FEW250 75.9 64 75.9 71.1 67% 78 30.23 1023.6
18 06:54 Calm 10.00 Partly Cloudy FEW055 SCT250 73 64.9 76% 30.23 1023.4
18 05:54 Calm 10.00 Mostly Cloudy SCT055 SCT070 BKN250 72 64 76% 30.22 1023.1
18 04:54 Calm 10.00 Mostly Cloudy BKN050 72 64 76% 30.2 1022.5
18 03:54 SE 3 10.00 Mostly Cloudy BKN045 72 64 76% 30.19 1022.1
18 02:54 SE 3 10.00 Partly Cloudy SCT042 72 64 76% 30.19 1022.0
18 01:54 SE 3 10.00 Mostly Cloudy BKN043 73.9 64 82 73.9 71% 30.18 1021.9
18 00:54 Calm 10.00 A Few Clouds FEW250 75 64.9 71% 77 30.18 1021.8
17 23:54 S 3 10.00 A Few Clouds FEW040 75 66.9 76% 76 30.17 1021.5
17 22:54 Vrbl 6 10.00 Fair CLR 75.9 66.9 74% 77 30.16 1021.1
17 21:54 S 6 10.00 Fair CLR 77 68 74% 79 30.15 1021.0
17 20:54 S 8 10.00 A Few Clouds FEW050 FEW250 79 68 69% 81 30.14 1020.4
17 19:54 SE 9 10.00 A Few Clouds FEW050 FEW250 82 66.9 91 82 60% 85 30.13 1020.3
17 18:54 SE 9 10.00 A Few Clouds FEW055 FEW250 84 66.9 57% 87 30.11 1019.3
17 17:54 SE 12 10.00 A Few Clouds FEW055 FEW250 87.1 69.1 55% 91 30.09 1018.9
17 16:54 S 9 G 20 10.00 A Few Clouds FEW050 FEW250 87.1 70 57% 92 30.11 1019.5
17 15:54 SE 10 10.00 Partly Cloudy SCT042 SCT050 87.1 70 57% 92 30.12 1019.7
17 14:54 Vrbl 7 10.00 Mostly Cloudy SCT043 BKN070 89.1 69.1 52% 94 30.13 1020.0
17 13:54 SW 7 10.00 Partly Cloudy FEW040 SCT070 SCT250 90 66.9 91 73 47% 93 30.13 1020.3
17 12:54 S 7 10.00 Partly Cloudy FEW075 SCT250 88 66 48% 90 30.14 1020.6
17 11:54 S 10 10.00 Partly Cloudy SCT075 84.9 66 53% 87 30.16 1021.2
17 10:54 SW 9 10.00 A Few Clouds FEW040 FEW080 82 66 58% 84 30.18 1021.7
17 09:54 S 8 10.00 Partly Cloudy FEW035 SCT080 79 64.9 62% 81 30.19 1022.1
17 08:54 S 10 G 20 10.00 A Few Clouds FEW070 FEW250 75.9 63 64% 78 30.19 1022.3
Date Time (edt) Wind (mph) Vis. (mi.) Weather Sky Cond. Air Dwpt Max. Min. Relative Humidity Wind Chill (°F) Heat Index (°F) altimeter (in) sea level (mb) 1 hr 3 hr 6 hr
6 hour
Temperature (ºF) Pressure Precipitation (in)